TimeCDT,TemperatureF,Dew PointF,Humidity,Sea Level PressureIn,VisibilityMPH,Wind Direction,Wind SpeedMPH,Gust SpeedMPH,PrecipitationIn,Events,Conditions,WindDirDegrees,DateUTC
12:52 AM,61.0,30.9,32,29.72,-9999.0,Calm,Calm,-,N/A,,Unknown,0,2012-10-03 05:52:00
1:52 AM,51.1,30.9,46,29.73,-9999.0,East,9.2,-,N/A,,Unknown,100,2012-10-03 06:52:00
2:52 AM,50.0,30.9,48,29.73,-9999.0,East,5.8,-,N/A,,Unknown,90,2012-10-03 07:52:00
3:52 AM,48.0,30.0,50,29.73,-9999.0,East,8.1,-,N/A,,Unknown,100,2012-10-03 08:52:00
4:52 AM,46.9,30.9,54,29.73,-9999.0,ESE,9.2,-,N/A,,Unknown,110,2012-10-03 09:52:00
5:52 AM,48.0,33.1,56,29.72,-9999.0,SE,10.4,-,N/A,,Unknown,130,2012-10-03 10:52:00
6:52 AM,48.0,34.0,58,29.72,-9999.0,SE,11.5,-,N/A,,Unknown,130,2012-10-03 11:52:00
7:52 AM,48.9,33.1,54,29.70,-9999.0,ESE,10.4,-,N/A,,Unknown,110,2012-10-03 12:52:00
8:52 AM,53.1,33.1,47,29.70,-9999.0,SE,11.5,-,N/A,,Unknown,130,2012-10-03 13:52:00
9:52 AM,59.0,34.0,39,29.68,-9999.0,SE,10.4,-,N/A,,Unknown,130,2012-10-03 14:52:00
10:52 AM,64.9,35.1,33,29.62,-9999.0,SE,20.7,27.6,N/A,,Unknown,130,2012-10-03 15:52:00
11:52 AM,71.1,37.0,29,29.62,-9999.0,SSE,16.1,26.5,N/A,,Unknown,160,2012-10-03 16:52:00
12:52 PM,73.9,37.0,26,29.61,-9999.0,South,13.8,-,N/A,,Unknown,170,2012-10-03 17:52:00
1:52 PM,78.1,37.0,23,29.61,-9999.0,SSW,18.4,24.2,N/A,,Unknown,200,2012-10-03 18:52:00
2:52 PM,77.0,37.9,24,29.62,-9999.0,WSW,18.4,28.8,N/A,,Unknown,250,2012-10-03 19:52:00
3:52 PM,77.0,37.0,24,29.64,-9999.0,WSW,20.7,26.5,N/A,,Unknown,250,2012-10-03 20:52:00
4:52 PM,75.0,36.0,24,29.67,-9999.0,WNW,21.9,28.8,N/A,,Unknown,300,2012-10-03 21:52:00
5:52 PM,68.0,37.0,32,29.74,-9999.0,NW,27.6,44.9,N/A,,Unknown,320,2012-10-03 22:52:00
6:52 PM,57.0,39.0,51,29.85,-9999.0,NNW,28.8,47.2,N/A,,Unknown,330,2012-10-03 23:52:00
7:52 PM,52.0,39.0,61,29.93,-9999.0,NNW,24.2,36.8,N/A,,Unknown,330,2012-10-04 00:52:00
8:52 PM,51.1,39.0,63,29.99,-9999.0,NW,26.5,36.8,N/A,,Unknown,320,2012-10-04 01:52:00
9:52 PM,50.0,39.9,68,30.02,-9999.0,NW,28.8,44.9,N/A,,Unknown,320,2012-10-04 02:52:00
10:52 PM,44.1,37.0,76,30.06,-9999.0,NW,29.9,40.3,N/A,,Unknown,320,2012-10-04 03:52:00
11:52 PM,43.0,35.1,74,30.12,-9999.0,NW,21.9,35.7,N/A,,Unknown,320,2012-10-04 04:52:00